Location: Dodgeville, WI 53533, USA
(43.0344°N, 90.0900°W)
Time: 04:24:19
(UTC-06:00)

X-37B - Pass Details

Date: 25 January 2021
Orbit: 383 x 391 km, 45.0° (Epoch: 27 February)

Event Time Altitude Azimuth Distance (km) Brightness Sun altitude
Rises 19:11:17 0° 283° (WNW) 2,275 5.7 -23.2°
Reaches altitude 10° 19:13:22 10° 286° (WNW) 1,420 4.4 -23.5°
Enters shadow 19:15:14 32° 294° (WNW) 699 2.3 -23.9°
